Terug naar catalogus

ARIANE 5 DEB

SYLDA

ActiefHEO
NORAD 52905·DEBRIS·🇫🇷 France

Gelanceerd Jun 22, 2022 vanaf Guiana Space Centre

Loading…

Volgende Passages (komende 24 uur)

TLE

VersSource: Space-Track

Epoch: Sep 14, 2026, 07:54 UTC

1 52905U 22067C   26257.32967929  .00032971  00000-0  54649-2 0  9999
2 52905   5.7620 312.4239 6406221  34.1641 353.9953  3.46042735 43937

Volg ARIANE 5 DEB in realtime met AllMySat

Download on the App Store